Inquirer Daily News

Weather

Get conditions and forecasts for any City, State, ZIP code or Country:  
Northeast Philadelphia, PA
on Tuesday, December 18, 2012

Tuesday
Previous Day Next Day
Daily Summary
 ActualAverage (KTTN)Record (KTTN)
Temperature
Mean Temperature °F 34°F  
Max Temperature 57°F 42°F 66°F (2006)
Min Temperature 41°F 27°F -1°F (1919)
Degree Days
Heating Degree Days 15 31  
Month to date heating degree days 500  
Since 1 July heating degree days 1476  
Cooling Degree Days 0 0  
Month to date cooling degree days 0  
Year to date cooling degree days 965  
Moisture
Dew Point 44°F   
Average Humidity 83    
Maximum Humidity 100    
Minimum Humidity 57    
Precipitation
Precipitation 0.32 in 0.12 in 1.80 in (1986)
Month to date precipitation 2.40  
Year to date precipitation 45.14  
Wind
Wind Speed 6 mph   
Max Wind Speed 21 mph   
Max Gust Speed 29 mph   
Visibility 6 miles   
Events Fog , Rain   

Key: T is trace of precipitation, MM is missing value
Source: NWS Daily Summary
Time(EST)TemperatureDew PointHumidity Pressure Visibility Wind DirectionWind SpeedGust SpeedPrecipitationEvents Conditions
1:24 AM 46.4°F 46.4°F 100% 29.56 in 1.5 miles WNW 4.6 mph - 0.15 in Rain Rain
1:34 AM 48.2°F 46.4°F 93% 29.54 in 1.8 miles Calm Calm - 0.23 in Rain Heavy Rain
1:37 AM 48.2°F 46.4°F 93% 29.54 in 2.0 miles Calm Calm - 0.24 in Rain Rain
1:54 AM 48.0°F 46.9°F 96% 29.54 in 5.0 miles ESE 5.8 mph - 0.25 in Rain Light Rain
2:26 AM 48.2°F 48.2°F 100% 29.53 in 6.0 miles Calm Calm - 0.01 in Rain Light Rain
2:54 AM 48.0°F 48.0°F 100% 29.54 in 4.0 miles Calm Calm - 0.02 in   Overcast
3:34 AM 48.2°F 48.2°F 100% 29.53 in 3.0 miles Calm Calm - N/A   Overcast
3:54 AM 48.9°F 48.0°F 97% 29.52 in 6.0 miles SW 3.5 mph - N/A   Overcast
4:25 AM 48.2°F 48.2°F 100% 29.52 in 1.8 miles Calm Calm - N/A   Overcast
4:51 AM 50.0°F 48.2°F 94% 29.52 in 0.5 miles WSW 4.6 mph - N/A Fog Fog
4:54 AM 50.0°F 48.9°F 96% 29.52 in 0.5 miles SW 5.8 mph - N/A Fog Fog
5:18 AM 50.0°F 48.2°F 94% 29.53 in 1.2 miles WSW 11.5 mph - N/A   Overcast
5:35 AM 50.0°F 48.2°F 94% 29.53 in 3.0 miles WSW 6.9 mph - N/A   Overcast
5:54 AM 50.0°F 48.9°F 96% 29.56 in 6.0 miles WSW 11.5 mph - N/A   Overcast
6:25 AM 50.0°F 48.2°F 94% 29.55 in 6.0 miles WSW 6.9 mph - 0.00 in   Overcast
6:33 AM 48.2°F 48.2°F 100% 29.54 in 8.0 miles WSW 3.5 mph - 0.00 in   Mostly Cloudy
6:54 AM 48.0°F 46.9°F 96% 29.55 in 5.0 miles WSW 4.6 mph - 0.00 in   Partly Cloudy
7:54 AM 46.9°F 46.0°F 97% 29.56 in 4.0 miles WSW 4.6 mph - N/A   Clear
8:54 AM 50.0°F 48.0°F 93% 29.57 in 6.0 miles WSW 8.1 mph - N/A   Clear
9:22 AM 51.8°F 48.2°F 88% 29.57 in 7.0 miles WSW 4.6 mph - N/A   Mostly Cloudy
9:54 AM 53.1°F 48.0°F 83% 29.57 in 9.0 miles WSW 6.9 mph - N/A   Scattered Clouds
10:54 AM 54.0°F 48.0°F 80% 29.55 in 10.0 miles SW 10.4 mph - N/A   Partly Cloudy
11:54 AM 55.9°F 45.0°F 67% 29.53 in 10.0 miles West 12.7 mph - N/A   Partly Cloudy
12:54 PM 55.9°F 43.0°F 62% 29.51 in 10.0 miles West 18.4 mph 23.0 mph N/A   Scattered Clouds
1:54 PM 57.0°F 42.1°F 57% 29.50 in 10.0 miles West 12.7 mph - N/A   Mostly Cloudy
2:54 PM 54.0°F 39.9°F 59% 29.53 in 10.0 miles WNW 19.6 mph 27.6 mph N/A   Overcast
3:54 PM 48.9°F 44.1°F 83% 29.55 in 10.0 miles West 12.7 mph - 0.05 in   Overcast
4:54 PM 48.9°F 37.0°F 64% 29.58 in 10.0 miles WNW 13.8 mph 24.2 mph N/A   Overcast
5:54 PM 46.9°F 35.1°F 63% 29.61 in 10.0 miles WNW 20.7 mph 28.8 mph N/A   Overcast
6:54 PM 46.0°F 35.1°F 66% 29.65 in 10.0 miles WNW 15.0 mph 27.6 mph N/A   Overcast
7:54 PM 44.1°F 33.1°F 65% 29.68 in 10.0 miles WNW 16.1 mph 28.8 mph N/A   Overcast
8:54 PM 43.0°F 32.0°F 65% 29.70 in 10.0 miles WNW 12.7 mph - N/A   Clear
9:54 PM 43.0°F 30.9°F 62% 29.71 in 10.0 miles WNW 13.8 mph 21.9 mph N/A   Clear
10:54 PM 43.0°F 30.0°F 60% 29.72 in 10.0 miles WNW 15.0 mph 21.9 mph N/A   Scattered Clouds
11:54 PM 41.0°F 28.0°F 60% 29.73 in 10.0 miles West 11.5 mph 19.6 mph N/A   Clear
Astronomy
Sunrise:07:17 AM (EST) Moon Rise:10:55 AM (EST)12/18
Sunset:04:36 PM (EST) Moon Set:11:00 PM (EST)12/18
Moon Phase
Dec. 18 Dec. 20 Dec. 28 Jan. 04 Jan. 11

Copyright © 2014 The Weather Underground, Inc.